[[{"header":{"parameterUnit":"m.s-1","parameterCategory":1,"la1":30.2991,"la2":30.254,"lo1":-89.0895,"lo2":-89.0444,"dy":0.0017,"dx":0.0017,"nx":28,"ny":28,"refTime":"2024-02-28T09:00:00:Z","depth":0,"parameterNumber":2,"parameterNumberName":"U-component_of_WINDS"},"data":[0,0,0,0,0,0,0,0,0,0,0,0,0,0,0,0,0,0,0,0,0,0,0,0,0,0,0,0,0,0,0,0,0,0,0,0,0,0,0,0,0,0,0,0,0,0,0,0,0,0,0,0,0,0,0,0,0,0,-6.6953,-6.6955,0,-6.7096,-6.7098,-6.7099,-6.6995,-6.6991,-6.6986,-6.6982,-6.7129,-6.7137,-6.7145,0,0,0,0,0,0,0,0,0,0,0,0,0,-6.6592,-6.6599,-6.6953,-6.6955,-6.6956,-6.7096,-6.7098,-6.71,-6.6996,-6.699,-6.6985,-6.698,-6.7126,-6.7136,-6.7146,0,0,0,0,0,0,0,0,0,0,0,0,0,-6.6743,-6.6601,-6.6953,-6.6922,-6.692,-6.7095,-6.7098,-6.71,-6.6997,-6.699,-6.6983,-6.6977,-6.7123,-6.7135,-6.7147,-6.7361,0,0,-6.7185,-6.719,0,0,0,0,0,0,0,0,-6.6735,-6.6756,-6.6924,-6.6924,-6.6923,-6.7021,-6.7024,-6.7188,-6.6999,-6.6968,-6.6982,-6.6974,-6.7099,-6.7113,-6.7155,-6.7368,-6.7374,-6.7186,-6.7193,-6.7199,-6.7202,0,0,0,0,0,0,0,-6.6724,-6.675,-6.7009,-6.6927,-6.6926,-6.6901,-6.6915,-6.7055,-6.707,-6.697,-6.6963,-6.6981,-6.7097,-6.7143,-6.7157,-6.7376,-6.7186,-6.7197,-6.7204,-6.7209,-6.7773,-6.778,0,0,0,0,0,0,-6.6717,-6.6742,-6.7005,-6.7014,-6.681,-6.6913,-6.6929,-6.6996,-6.7068,-6.7073,-6.6987,-6.6976,-6.7125,-6.7143,-6.7162,-6.7416,-6.7199,-6.721,-6.7217,-6.7765,-6.7775,-6.7783,0,0,0,0,0,0,-6.6709,-6.6741,-6.6999,-6.6876,-6.6907,-6.6927,-6.7003,-6.7003,-6.7048,-6.7081,-6.7083,-6.7031,-6.7121,-6.7145,-6.7312,-6.7419,-6.7216,-6.7227,-6.7756,-6.7768,-6.7779,-6.7926,0,0,0,0,0,0,-6.6699,-6.6739,-6.682,-6.6879,-6.6914,-6.7147,-6.701,-6.701,-6.707,-6.7057,-6.7123,-6.7127,-6.7117,-6.7295,-6.7325,-6.7433,-6.7237,-6.7747,-6.7762,-6.7775,-6.7912,-6.7941,-6.7966,0,0,0,0,0,-6.6687,-6.6856,-6.6824,-6.6857,-6.7015,-6.7153,-6.7173,-6.7157,-6.7079,-6.716,-6.7182,-6.7125,-6.7404,-6.7313,-6.7346,-6.7459,-6.774,-6.7757,-6.7774,-6.7899,-6.7935,-6.7966,0,0,0,0,0,0,-6.6808,-6.6863,-6.6828,-6.7021,-6.7084,-6.7135,-6.7237,-6.7196,-6.7282,-6.7266,-6.7244,-6.726,-6.7435,-6.7464,-6.7362,-6.767,-6.7559,-6.7584,-6.7644,-6.7678,-6.7705,-6.7692,-6.7247,0,0,0,0,0,-6.6858,-6.6965,-6.7007,-6.7173,-6.7206,-6.7217,-6.7276,-6.7259,-6.7323,-6.7348,-6.7382,-6.7446,-6.7548,-6.7615,-6.7711,-6.7917,-6.7929,-6.8012,-6.8039,-6.8061,-6.8082,-6.8192,-6.8229,-6.7839,-6.7839,-6.7838,0,0,-6.696,-6.7003,-6.7072,-6.7199,-6.7245,-6.7356,-6.7239,-6.7362,-6.7445,-6.7367,-6.7526,-6.7554,-6.7625,-6.7812,-6.7897,-6.7842,-6.8193,-6.8083,-6.8101,-6.8109,-6.8214,-6.8251,-6.8283,-6.7851,-6.7848,-6.7847,0,0,-6.7204,-6.7248,-6.739,-6.744,-6.7511,-6.7518,-6.7553,-6.7612,-6.7627,-6.7787,-6.7731,-6.783,-6.8006,-6.8058,-6.8108,-6.8375,-6.8326,-6.8407,-6.8548,-6.8657,-6.8687,-6.8714,-6.8808,-6.8842,-6.8428,-6.8429,-6.8429,0,-6.7322,-6.7487,-6.7469,-6.7597,-6.7654,-6.759,-6.7734,-6.7783,-6.7883,-6.7924,-6.7862,-6.8082,-6.8125,-6.8324,-6.8389,-6.8433,-6.8471,-6.8397,-6.8684,-6.8711,-6.8736,-6.8825,-6.886,-6.8438,-6.8437,-6.8436,-6.8435,0,-6.7628,-6.7744,-6.7851,-6.7949,-6.8019,-6.8154,-6.8157,-6.8231,-6.8209,-6.8223,-6.8387,-6.8437,-6.8542,-6.8589,-6.8569,-6.8785,-6.8749,-6.8687,-6.8574,-6.8783,-6.8866,-6.89,-6.8451,-6.8448,-6.8445,-6.8443,0,0,-6.7947,-6.8036,-6.8075,-6.8118,-6.8194,-6.8284,-6.8418,-6.852,-6.8582,-6.8655,-6.8765,-6.8918,-6.8861,-6.8918,-6.8904,-6.8999,-6.9206,-6.8925,-6.8926,-6.8973,-6.9446,-6.949,-6.9529,-6.9176,-6.9182,-6.9187,-6.9439,0,-6.8192,-6.8423,-6.8413,-6.863,-6.8736,-6.8679,-6.8796,-6.8856,-6.8873,-6.8967,-6.8986,-6.9093,-6.9011,-6.9045,-6.9138,-6.9161,-6.93,-6.9143,-6.9277,-6.9282,-6.9257,-6.9573,-6.9619,-6.9854,-6.9472,-6.9477,-6.9481,0,-6.8507,-6.859,-6.8818,-6.8878,-6.8923,-6.9027,-6.9121,-6.9212,-6.9279,-6.9285,-6.935,-6.9321,-6.9457,-6.9345,-6.9532,-6.9426,-6.9481,-6.9501,-6.951,-6.9518,-6.9391,-6.9587,-6.9929,-6.9963,-6.9533,-6.9529,-6.9525,0,-6.8714,-6.8883,-6.9041,-6.908,-6.9156,-6.9231,-6.9266,-6.9327,-6.9389,-6.9472,-6.9512,-6.9611,-6.9663,-6.974,-6.9739,-6.9658,-6.9928,-6.9816,-6.9936,-6.9936,-6.9991,-6.9987,-7.0344,-7.0034,-7.0033,-7.0033,-7.0032,0,-6.8986,-6.9127,-6.9134,-6.9231,-6.9387,-6.9376,-6.9531,-6.9559,-6.9614,-6.9715,-6.9674,-6.977,-6.9764,-6.9862,-6.9863,-7.0017,-7.0042,-7.005,-7.0048,-7.0051,-7.005,-7.0084,-7.0066,-7.0042,-7.004,-7.0038,-7.0037,0,-6.9241,-6.9252,-6.942,-6.9479,-6.9497,-6.9609,-6.966,-6.9752,-6.9767,-6.9896,-6.9926,-6.995,-7.0063,-7.0071,-7.0202,-7.0203,-7.0389,-7.0371,-7.0365,-7.0361,-7.0479,-7.0467,-7.0866,-7.0917,-7.0578,-7.0581,-7.0584,0,-6.9412,-6.9519,-6.959,-6.9654,-6.9694,-6.9799,-6.9863,-6.9857,-6.9926,-7.0012,-7.0094,-7.0203,-7.029,-7.0474,-7.0503,-7.0604,-7.0585,-7.0719,-7.06,-7.06,-7.0584,-7.0576,-7.0586,-7.074,-7.0744,-7.0747,-7.075,0,-6.9713,-6.9714,-6.9807,-6.9904,-6.9981,-7.0057,-7.0128,-7.0184,-7.0186,-7.0266,-7.0381,-7.0448,-7.0583,-7.0692,-7.0791,-7.0827,-7.0789,-7.0788,-7.082,-7.0823,-7.0814,-7.0818,-7.0424,-7.0777,-7.0775,-7.0773,-7.0771,-7.077,-6.9929,-7.0021,-7.0085,-7.0191,-7.0244,-7.0312,-7.0401,-7.0428,-7.0524,-7.0632,-7.0624,-7.0752,-7.0818,-7.0947,-7.0992,-7.1092,-7.1046,-7.1094,-7.1106,-7.1117,-7.1127,-7.0802,-7.1111,-7.111,-7.1109,-7.1108,-7.1108,0,-7.0225,-7.0264,-7.0362,-7.0462,-7.0546,-7.0505,-7.0582,-7.0655,-7.0767,-7.0833,-7.0919,-7.1052,-7.1159,-7.1198,-7.1302,-7.1374,-7.1359,-7.1401,-7.1394,-7.1403,-7.1164,-7.1123,-7.1411,-7.1411,-7.1411,-7.1411,-7.1411,-7.1411,-7.0388,-7.0542,-7.0551,-7.0731,-7.0769,-7.0893,-7.094,-7.1003,-7.1055,-7.1205,-7.1293,-7.1318,-7.1374,-7.1482,-7.1577,-7.1586,-7.1625,-7.1674,-7.1675,-7.145,-7.1419,-7.139,-7.1352,-7.1683,-7.1684,-7.1905,-7.1907,-7.1909]},{"header":{"parameterUnit":"m.s-1","parameterCategory":1,"la1":30.2991,"la2":30.254,"lo1":-89.0895,"lo2":-89.0444,"dy":0.0017,"dx":0.0017,"nx":28,"ny":28,"refTime":"2024-02-28T09:00:00:Z","depth":0,"parameterNumber":3,"parameterNumberName":"V-component_of_WINDS"},"data":[0,0,0,0,0,0,0,0,0,0,0,0,0,0,0,0,0,0,0,0,0,0,0,0,0,0,0,0,0,0,0,0,0,0,0,0,0,0,0,0,0,0,0,0,0,0,0,0,0,0,0,0,0,0,0,0,0,0,-0.2302,-0.23,0,-0.207,-0.2068,-0.2065,-0.1967,-0.1967,-0.1967,-0.1968,-0.1728,-0.1721,-0.1714,0,0,0,0,0,0,0,0,0,0,0,0,0,-0.2654,-0.2648,-0.2303,-0.23,-0.2297,-0.2071,-0.2068,-0.2064,-0.1967,-0.1967,-0.1968,-0.1968,-0.173,-0.1722,-0.1714,0,0,0,0,0,0,0,0,0,0,0,0,0,-0.247,-0.2647,-0.2303,-0.2221,-0.2211,-0.2072,-0.2068,-0.2064,-0.1966,-0.1967,-0.1968,-0.1968,-0.1733,-0.1723,-0.1713,-0.1637,0,0,-0.1682,-0.1677,0,0,0,0,0,0,0,0,-0.2481,-0.2457,-0.2236,-0.2226,-0.2215,-0.2048,-0.2103,-0.192,-0.1966,-0.2059,-0.1968,-0.1969,-0.1834,-0.1815,-0.177,-0.1626,-0.1615,-0.1681,-0.1674,-0.167,-0.1667,0,0,0,0,0,0,0,-0.2493,-0.2467,-0.2211,-0.2233,-0.222,-0.2193,-0.2168,-0.2068,-0.1946,-0.2051,-0.2044,-0.2018,-0.1828,-0.178,-0.1764,-0.1612,-0.1681,-0.1672,-0.1666,-0.1662,-0.1388,-0.1386,0,0,0,0,0,0,-0.252,-0.2478,-0.2218,-0.2204,-0.2352,-0.2186,-0.2158,-0.2101,-0.1946,-0.1924,-0.2017,-0.2014,-0.1797,-0.1776,-0.1755,-0.1653,-0.167,-0.1661,-0.1655,-0.1389,-0.1387,-0.1386,0,0,0,0,0,0,-0.2528,-0.2498,-0.2227,-0.2338,-0.2302,-0.218,-0.2117,-0.2096,-0.2048,-0.1921,-0.1898,-0.1991,-0.1797,-0.1769,-0.1666,-0.1643,-0.1656,-0.1647,-0.139,-0.1388,-0.1387,-0.145,0,0,0,0,0,0,-0.2539,-0.2502,-0.2474,-0.2339,-0.2296,-0.2145,-0.2115,-0.2091,-0.2031,-0.2025,-0.189,-0.1869,-0.1795,-0.1682,-0.1656,-0.1629,-0.1639,-0.1392,-0.1389,-0.1387,-0.145,-0.1451,-0.1452,0,0,0,0,0,-0.2552,-0.2501,-0.2473,-0.2442,-0.2259,-0.2144,-0.2119,-0.2037,-0.203,-0.1999,-0.1916,-0.1873,-0.165,-0.1672,-0.1642,-0.1612,-0.1393,-0.139,-0.1387,-0.1449,-0.1451,-0.1452,0,0,0,0,0,0,-0.2637,-0.2482,-0.2449,-0.2354,-0.2262,-0.2127,-0.2086,-0.2041,-0.195,-0.1947,-0.1847,-0.1818,-0.1722,-0.1656,-0.1684,-0.1528,-0.1517,-0.1509,-0.1575,-0.1575,-0.1576,-0.1594,-0.163,0,0,0,0,0,-0.2645,-0.2566,-0.2434,-0.2362,-0.2318,-0.221,-0.2157,-0.2101,-0.2002,-0.1962,-0.1872,-0.1777,-0.1684,-0.1626,-0.1535,-0.1439,-0.1407,-0.1403,-0.1405,-0.1406,-0.14,-0.134,-0.1336,-0.1377,-0.1377,-0.1378,0,0,-0.266,-0.2566,-0.2522,-0.2377,-0.23,-0.2217,-0.2179,-0.2094,-0.2031,-0.1949,-0.1846,-0.1776,-0.1662,-0.1562,-0.1513,-0.1504,-0.1381,-0.1403,-0.1405,-0.1398,-0.1337,-0.1334,-0.133,-0.1376,-0.1376,-0.1376,0,0,-0.2646,-0.2567,-0.2497,-0.242,-0.2303,-0.223,-0.2214,-0.2084,-0.2034,-0.1928,-0.1864,-0.1786,-0.1631,-0.1551,-0.149,-0.144,-0.1395,-0.1413,-0.1419,-0.1362,-0.1359,-0.1356,-0.1335,-0.1329,-0.1407,-0.1407,-0.1407,0,-0.2679,-0.2554,-0.2467,-0.2384,-0.2321,-0.2242,-0.2168,-0.2097,-0.1956,-0.1913,-0.1905,-0.1705,-0.1623,-0.1501,-0.1488,-0.1442,-0.1417,-0.1428,-0.1367,-0.1362,-0.1358,-0.1337,-0.133,-0.141,-0.1409,-0.1409,-0.1409,0,-0.2599,-0.2513,-0.247,-0.2335,-0.2267,-0.219,-0.2088,-0.2028,-0.1976,-0.1904,-0.1795,-0.1693,-0.1578,-0.1544,-0.1494,-0.1413,-0.1411,-0.1386,-0.1374,-0.1358,-0.1337,-0.1328,-0.1414,-0.1413,-0.1412,-0.1411,0,0,-0.2635,-0.245,-0.2435,-0.2371,-0.2234,-0.2165,-0.2081,-0.1968,-0.1918,-0.1822,-0.1748,-0.1615,-0.159,-0.1521,-0.146,-0.141,-0.1373,-0.139,-0.1386,-0.1389,-0.1273,-0.1293,-0.1285,-0.1342,-0.134,-0.1339,-0.1282,0,-0.2601,-0.245,-0.2367,-0.225,-0.2167,-0.2088,-0.2015,-0.1922,-0.1851,-0.1768,-0.1688,-0.1595,-0.1571,-0.1528,-0.1475,-0.1389,-0.1348,-0.1392,-0.127,-0.1267,-0.13,-0.1274,-0.1295,-0.1247,-0.1274,-0.1272,-0.1271,0,-0.2542,-0.2446,-0.2321,-0.2189,-0.2151,-0.2087,-0.1974,-0.1897,-0.1787,-0.1739,-0.1659,-0.1598,-0.1504,-0.1498,-0.1365,-0.1397,-0.1341,-0.1291,-0.1286,-0.1272,-0.1268,-0.1257,-0.123,-0.1222,-0.1257,-0.1259,-0.126,0,-0.2577,-0.2417,-0.232,-0.2268,-0.2113,-0.2069,-0.2002,-0.1893,-0.1829,-0.1729,-0.1685,-0.1577,-0.1517,-0.1432,-0.1342,-0.1346,-0.1216,-0.1204,-0.1171,-0.1174,-0.1148,-0.1151,-0.111,-0.1114,-0.1114,-0.1115,-0.1115,0,-0.2547,-0.2473,-0.2334,-0.2275,-0.2188,-0.2091,-0.2007,-0.1933,-0.1836,-0.1758,-0.1683,-0.1612,-0.1497,-0.141,-0.1338,-0.1237,-0.1211,-0.1167,-0.1149,-0.1174,-0.1179,-0.1136,-0.1136,-0.1112,-0.1113,-0.1113,-0.1114,0,-0.2573,-0.2478,-0.2366,-0.2227,-0.219,-0.2132,-0.2011,-0.1949,-0.1872,-0.1775,-0.1746,-0.1626,-0.1519,-0.142,-0.1279,-0.123,-0.1127,-0.1104,-0.1165,-0.1154,-0.1127,-0.113,-0.1057,-0.1041,-0.1057,-0.1057,-0.1057,0,-0.2561,-0.2501,-0.2355,-0.2298,-0.2232,-0.2141,-0.2074,-0.1975,-0.1908,-0.1776,-0.1728,-0.1616,-0.1522,-0.1354,-0.1253,-0.1143,-0.1116,-0.1097,-0.1099,-0.1124,-0.1113,-0.1118,-0.111,-0.1099,-0.11,-0.11,-0.11,0,-0.2547,-0.2501,-0.2409,-0.2298,-0.2221,-0.2129,-0.2034,-0.1991,-0.1873,-0.1801,-0.1691,-0.1617,-0.1471,-0.1359,-0.1237,-0.1165,-0.1112,-0.11,-0.1086,-0.1111,-0.1147,-0.1125,-0.1168,-0.1103,-0.1102,-0.1102,-0.1102,-0.1102,-0.2551,-0.2493,-0.238,-0.2278,-0.2196,-0.2109,-0.2042,-0.1956,-0.1863,-0.1737,-0.1682,-0.157,-0.1457,-0.1287,-0.1215,-0.1124,-0.1112,-0.1093,-0.1088,-0.1085,-0.1088,-0.1162,-0.1101,-0.1101,-0.1101,-0.1101,-0.11,0,-0.2532,-0.2454,-0.2361,-0.2231,-0.2149,-0.2106,-0.1998,-0.1932,-0.1835,-0.1734,-0.1641,-0.1512,-0.1403,-0.1291,-0.1174,-0.1123,-0.1095,-0.1095,-0.1098,-0.1081,-0.1106,-0.1129,-0.1119,-0.1119,-0.1119,-0.1119,-0.1119,-0.1119,-0.2512,-0.2411,-0.2351,-0.2207,-0.2129,-0.2019,-0.196,-0.1877,-0.1796,-0.1656,-0.1564,-0.1492,-0.1385,-0.126,-0.1156,-0.1125,-0.1085,-0.1092,-0.1055,-0.1081,-0.108,-0.1079,-0.11,-0.1084,-0.1084,-0.1037,-0.1036,-0.1036]}]]